,,,PA_Meas_PMT16A,,PR_Meas_QMR101_102,,RH_Meas_QMH101,,SR_Meas_QMS101,,TA_Meas_QMH101,,GenWind,,GenWind,
date,time,status,PA,status,PR,status,RH,status,SR,status,TA,status,DirAvg,status,SpdAvg,
2011-06-14, 00:00:04,VALID,1002.38,VALID,0,VALID,94.1343,VALID,0,VALID,22.4136,VALID,122,VALID,0,
2011-06-14, 00:01:04,VALID,1002.33,VALID,0,VALID,94.1343,VALID,0,VALID,22.4543,VALID,122,VALID,0,
2011-06-14, 00:02:04,VALID,1002.3,VALID,0,VALID,94.1343,VALID,0,VALID,22.4543,VALID,123,VALID,0,
2011-06-14, 00:03:04,VALID,1002.26,VALID,0,VALID,94.1419,VALID,0,VALID,22.4331,VALID,123,VALID,0,
2011-06-14, 00:04:04,VALID,1002.21,VALID,0,VALID,94.1343,VALID,0,VALID,22.4331,VALID,123,VALID,0,
2011-06-14, 00:05:04,VALID,1002.21,VALID,0,VALID,94.1343,VALID,0,VALID,22.4543,VALID,123,VALID,0,
2011-06-14, 00:06:04,VALID,1002.16,VALID,0,VALID,94.1419,VALID,0,VALID,22.4543,VALID,123,VALID,0,
2011-06-14, 00:07:04,VALID,1002.14,VALID,0,VALID,94.1419,VALID,0,VALID,22.4543,VALID,123,VALID,0,
2011-06-14, 00:08:04,VALID,1002.09,VALID,0,VALID,94.1419,VALID,0,VALID,22.4543,VALID,123,VALID,0,
2011-06-14, 00:09:04,VALID,1002.08,VALID,0,VALID,94.1648,VALID,0,VALID,22.4543,VALID,123,VALID,0,
2011-06-14, 00:10:04,VALID,1002.06,VALID,0,VALID,94.1571,VALID,0,VALID,22.4543,VALID,123,VALID,0,
2011-06-14, 00:11:04,VALID,1002.02,VALID,0,VALID,94.1495,VALID,0,VALID,22.4543,VALID,123,VALID,0,
2011-06-14, 00:12:04,VALID,1001.96,VALID,0,VALID,94.1495,VALID,0,VALID,22.4331,VALID,123,VALID,0,
2011-06-14, 00:13:04,VALID,1001.93,VALID,0,VALID,94.1495,VALID,0,VALID,22.4331,VALID,123,VALID,0,
2011-06-14, 00:14:04,VALID,1001.91,VALID,0,VALID,94.1343,VALID,0,VALID,22.4738,VALID,123,VALID,0,
2011-06-14, 00:15:04,VALID,1001.86,VALID,0,VALID,94.1419,VALID,0,VALID,22.4721,VALID,138,VALID,0.782422,
2011-06-14, 00:16:04,VALID,1001.85,VALID,0,VALID,94.1495,VALID,0,VALID,22.5128,VALID,142,VALID,0.684766,
2011-06-14, 00:17:04,VALID,1001.82,VALID,0,VALID,94.1495,VALID,0,VALID,22.5111,VALID,142,VALID,0.59375,
2011-06-14, 00:18:04,VALID,1001.81,VALID,0,VALID,94.1495,VALID,0,VALID,22.5128,VALID,142,VALID,0.628906,
2011-06-14, 00:19:04,VALID,1001.8,VALID,0,VALID,94.1571,VALID,0,VALID,22.5128,VALID,142,VALID,0.492188,
2011-06-14, 00:20:04,VALID,1001.76,VALID,0,VALID,94.1419,VALID,0,VALID,22.5111,VALID,143,VALID,0.403516,
2011-06-14, 00:21:04,VALID,1001.73,VALID,0,VALID,94.1571,VALID,0,VALID,22.5306,VALID,143,VALID,0.625391,
2011-06-14, 00:22:04,VALID,1001.74,VALID,0,VALID,94.1266,VALID,0,VALID,22.5501,VALID,144,VALID,0.49375,
2011-06-14, 00:23:04,VALID,1001.66,VALID,0.5,VALID,94.1266,VALID,0,VALID,22.5501,VALID,144,VALID,0.595312,
2011-06-14, 00:24:04,VALID,1001.7,VALID,0,VALID,94.1343,VALID,0,VALID,22.5696,VALID,145,VALID,0.542969,
2011-06-14, 00:25:04,VALID,1001.67,VALID,0,VALID,94.119,VALID,0,VALID,22.5696,VALID,145,VALID,0.525,
2011-06-14, 00:26:04,VALID,1001.61,VALID,0,VALID,94.1266,VALID,0,VALID,22.5714,VALID,145,VALID,0.491016,
2011-06-14, 00:27:04,VALID,1001.59,VALID,0,VALID,94.119,VALID,0,VALID,22.5696,VALID,145,VALID,0.495703,
2011-06-14, 00:28:04,VALID,1001.54,VALID,0,VALID,94.1343,VALID,0,VALID,22.5696,VALID,145,VALID,0.648438,
2011-06-14, 00:29:04,VALID,1001.51,VALID,0,VALID,94.1266,VALID,0,VALID,22.5892,VALID,145,VALID,0.564844,
2011-06-14, 00:30:04,VALID,1001.5,VALID,0,VALID,94.1266,VALID,0,VALID,22.6087,VALID,145,VALID,0.880078,
2011-06-14, 00:31:04,VALID,1001.43,VALID,0,VALID,94.1419,VALID,0,VALID,22.6087,VALID,135,VALID,0.764844,
2011-06-14, 00:32:04,VALID,1001.42,VALID,0,VALID,94.1571,VALID,0,VALID,22.6087,VALID,115,VALID,0.769531,
2011-06-14, 00:33:04,VALID,1001.38,VALID,0,VALID,94.1571,VALID,0,VALID,22.6087,VALID,115,VALID,0.318359,
2011-06-14, 00:34:04,VALID,1001.32,VALID,0,VALID,94.1343,VALID,0,VALID,22.6087,VALID,115,VALID,0,
2011-06-14, 00:35:04,VALID,1001.28,VALID,0,VALID,94.1343,VALID,0,VALID,22.6282,VALID,115,VALID,0.0539063,
2011-06-14, 00:36:04,VALID,1001.28,VALID,0,VALID,94.1648,VALID,0,VALID,22.6087,VALID,115,VALID,0,
2011-06-14, 00:37:04,VALID,1001.25,VALID,0,VALID,94.1571,VALID,0,VALID,22.6299,VALID,115,VALID,0,
2011-06-14, 00:38:04,VALID,1001.21,VALID,0,VALID,94.1495,VALID,0,VALID,22.6087,VALID,115,VALID,0,
2011-06-14, 00:39:04,VALID,1001.17,VALID,0,VALID,94.1419,VALID,0,VALID,22.6087,VALID,115,VALID,0.304688,
2011-06-14, 00:40:04,VALID,1001.12,VALID,0,VALID,94.1343,VALID,0,VALID,22.6087,VALID,130,VALID,0.543359,
2011-06-14, 00:41:04,VALID,1001.09,VALID,0,VALID,94.1419,VALID,0,VALID,22.6494,VALID,130,VALID,0.353516,
2011-06-14, 00:42:04,VALID,1001.08,VALID,0,VALID,94.1724,VALID,0,VALID,22.6477,VALID,135,VALID,0.211719,
2011-06-14, 00:43:04,VALID,1001.04,VALID,0,VALID,94.119,VALID,0,VALID,22.6477,VALID,135,VALID,0.375781,
2011-06-14, 00:44:04,VALID,1001.02,VALID,0,VALID,94.1343,VALID,0,VALID,22.6672,VALID,141,VALID,0.446094,
2011-06-14, 00:45:04,VALID,1001.01,VALID,0,VALID,94.1266,VALID,0,VALID,22.6884,VALID,141,VALID,0.238672,
2011-06-14, 00:46:04,VALID,1000.99,VALID,0,VALID,94.1343,VALID,0,VALID,22.7062,VALID,141,VALID,0.182422,
2011-06-14, 00:47:04,VALID,1000.99,VALID,0,VALID,94.1419,VALID,0,VALID,22.7257,VALID,191,VALID,0.523047,
2011-06-14, 00:48:04,VALID,1000.97,VALID,0,VALID,94.1343,VALID,0,VALID,22.7469,VALID,178,VALID,0.385938,
2011-06-14, 00:49:04,VALID,1000.99,VALID,0,VALID,94.1343,VALID,0,VALID,22.7452,VALID,180,VALID,0.743359,
2011-06-14, 00:50:04,VALID,1000.95,VALID,0,VALID,94.1343,VALID,0,VALID,22.7647,VALID,199,VALID,1.19453,
2011-06-14, 00:51:04,VALID,1000.94,VALID,0,VALID,94.1114,VALID,0,VALID,22.7647,VALID,199,VALID,1.20508,
2011-06-14, 00:52:04,VALID,1000.93,VALID,0,VALID,94.119,VALID,0,VALID,22.8037,VALID,196,VALID,0.894141,
2011-06-14, 00:53:04,VALID,1000.87,VALID,0,VALID,94.1114,VALID,0,VALID,22.7842,VALID,170,VALID,1.36992,
2011-06-14, 00:54:04,VALID,1000.86,VALID,0,VALID,94.1266,VALID,0,VALID,22.8037,VALID,158,VALID,1.12734,
2011-06-14, 00:55:04,VALID,1000.85,VALID,0,VALID,94.1114,VALID,0,VALID,22.8232,VALID,158,VALID,0.900391,
2011-06-14, 00:56:04,VALID,1000.85,VALID,0,VALID,94.119,VALID,0,VALID,22.8232,VALID,166,VALID,0.959766,
2011-06-14, 00:57:04,VALID,1000.84,VALID,0,VALID,94.1266,VALID,0,VALID,22.8445,VALID,167,VALID,0.650781,
2011-06-14, 00:58:04,VALID,1000.84,VALID,0,VALID,94.119,VALID,0,VALID,22.8232,VALID,168,VALID,0.620313,
2011-06-14, 00:59:04,VALID,1000.82,VALID,0,VALID,94.1266,VALID,0,VALID,22.8232,VALID,168,VALID,0.0902344,
2011-06-14, 01:00:04,VALID,1000.8,VALID,0,VALID,94.1343,VALID,0,VALID,22.786,VALID,35,VALID,1.28945,
2011-06-14, 01:01:04,VALID,1000.79,VALID,0,VALID,94.1724,VALID,0,VALID,22.6689,VALID,34,VALID,0.989453,
2011-06-14, 01:02:04,VALID,1000.77,VALID,0,VALID,94.1571,VALID,0,VALID,22.6087,VALID,26,VALID,0.564844,
2011-06-14, 01:03:04,VALID,1000.75,VALID,0,VALID,94.1571,VALID,0,VALID,22.5696,VALID,36,VALID,0.933984,
2011-06-14, 01:04:04,VALID,1000.72,VALID,0,VALID,94.18,VALID,0,VALID,22.5909,VALID,43,VALID,1.73633,
2011-06-14, 01:05:04,VALID,1000.71,VALID,0,VALID,94.1648,VALID,0,VALID,22.5714,VALID,45,VALID,1.83242,
2011-06-14, 01:06:04,VALID,1000.67,VALID,0,VALID,94.18,VALID,0,VALID,22.5306,VALID,44,VALID,1.70781,
2011-06-14, 01:07:04,VALID,1000.66,VALID,0,VALID,94.1724,VALID,0,VALID,22.5306,VALID,44,VALID,1.41445,
2011-06-14, 01:08:04,VALID,1000.64,VALID,0,VALID,94.18,VALID,0,VALID,22.5323,VALID,34,VALID,1.24336,
2011-06-14, 01:09:04,VALID,1000.6,VALID,0,VALID,94.1877,VALID,0,VALID,22.5323,VALID,34,VALID,1.2543,
2011-06-14, 01:10:04,VALID,1000.54,VALID,0,VALID,94.1648,VALID,0,VALID,22.5111,VALID,37,VALID,1.33789,
2011-06-14, 01:11:04,VALID,1000.55,VALID,0,VALID,94.1724,VALID,0,VALID,22.5323,VALID,52,VALID,1.48828,
2011-06-14, 01:12:04,VALID,1000.55,VALID,0,VALID,94.1724,VALID,0,VALID,22.5111,VALID,52,VALID,1.50469,
2011-06-14, 01:13:04,VALID,1000.53,VALID,0,VALID,94.18,VALID,0,VALID,22.5306,VALID,56,VALID,1.38867,
2011-06-14, 01:14:04,VALID,1000.47,VALID,0,VALID,94.1571,VALID,0,VALID,22.5306,VALID,59,VALID,1.63867,
2011-06-14, 01:15:04,VALID,1000.48,VALID,0,VALID,94.1724,VALID,0,VALID,22.5306,VALID,64,VALID,1.42734,
2011-06-14, 01:16:04,VALID,1000.46,VALID,0,VALID,94.1953,VALID,0,VALID,22.5306,VALID,61,VALID,1.66172,
2011-06-14, 01:17:04,VALID,1000.45,VALID,0,VALID,94.1953,VALID,0,VALID,22.5501,VALID,64,VALID,1.49648,
2011-06-14, 01:18:04,VALID,1000.47,VALID,0,VALID,94.1724,VALID,0,VALID,22.5306,VALID,71,VALID,1.18789,
2011-06-14, 01:19:04,VALID,1000.45,VALID,0,VALID,94.18,VALID,0,VALID,22.5714,VALID,78,VALID,0.865234,
2011-06-14, 01:20:04,VALID,1000.48,VALID,0,VALID,94.1877,VALID,0,VALID,22.5501,VALID,83,VALID,0.572656,
2011-06-14, 01:21:04,VALID,1000.48,VALID,0,VALID,94.1724,VALID,0,VALID,22.5501,VALID,91,VALID,0.994531,
2011-06-14, 01:22:04,VALID,1000.47,VALID,0,VALID,94.1571,VALID,0,VALID,22.5714,VALID,94,VALID,1.01133,
2011-06-14, 01:23:04,VALID,1000.46,VALID,0,VALID,94.1571,VALID,0,VALID,22.5714,VALID,102,VALID,1.02852,
2011-06-14, 01:24:04,VALID,1000.48,VALID,0,VALID,94.1877,VALID,0,VALID,22.5501,VALID,98,VALID,1.20352,
2011-06-14, 01:25:04,VALID,1000.47,VALID,0,VALID,94.1724,VALID,0,VALID,22.5519,VALID,110,VALID,1.25742,
2011-06-14, 01:26:04,VALID,1000.5,VALID,0,VALID,94.18,VALID,0,VALID,22.5501,VALID,101,VALID,1.53125,
2011-06-14, 01:27:04,VALID,1000.46,VALID,0,VALID,94.18,VALID,0,VALID,22.5909,VALID,99,VALID,1.23633,
2011-06-14, 01:28:04,VALID,1000.47,VALID,0,VALID,94.1571,VALID,0,VALID,22.5909,VALID,94,VALID,1.10547,
2011-06-14, 01:29:04,VALID,1000.49,VALID,0,VALID,94.1648,VALID,0,VALID,22.5892,VALID,97,VALID,1.1375,
2011-06-14, 01:30:04,VALID,1000.47,VALID,0,VALID,94.1724,VALID,0,VALID,22.5892,VALID,100,VALID,1.13477,
2011-06-14, 01:31:04,VALID,1000.47,VALID,0,VALID,94.1724,VALID,0,VALID,22.5892,VALID,97,VALID,1.24258,
2011-06-14, 01:32:04,VALID,1000.46,VALID,0,VALID,94.1724,VALID,0,VALID,22.5892,VALID,100,VALID,1.30977,
2011-06-14, 01:33:04,VALID,1000.47,VALID,0,VALID,94.1495,VALID,0,VALID,22.6087,VALID,95,VALID,1.33672,
2011-06-14, 01:34:04,VALID,1000.46,VALID,0,VALID,94.1571,VALID,0,VALID,22.6104,VALID,100,VALID,1.20703,
2011-06-14, 01:35:04,VALID,1000.42,VALID,0,VALID,94.1724,VALID,0,VALID,22.6299,VALID,99,VALID,1.42305,
2011-06-14, 01:36:04,VALID,1000.42,VALID,0,VALID,94.1571,VALID,0,VALID,22.6299,VALID,106,VALID,0.985937,
2011-06-14, 01:37:04,VALID,1000.42,VALID,0,VALID,94.1724,VALID,0,VALID,22.6282,VALID,98,VALID,0.630469,
2011-06-14, 01:38:04,VALID,1000.39,VALID,0,VALID,94.18,VALID,0,VALID,22.6494,VALID,96,VALID,0.676562,
2011-06-14, 01:39:04,VALID,1000.37,VALID,0,VALID,94.1571,VALID,0,VALID,22.6282,VALID,96,VALID,0.741797,
2011-06-14, 01:40:04,VALID,1000.35,VALID,0,VALID,94.1571,VALID,0,VALID,22.6282,VALID,106,VALID,0.764063,
2011-06-14, 01:41:04,VALID,1000.33,VALID,0,VALID,94.1419,VALID,0,VALID,22.6282,VALID,106,VALID,0.491406,
2011-06-14, 01:42:04,VALID,1000.28,VALID,0,VALID,94.1495,VALID,0,VALID,22.6477,VALID,106,VALID,0.446484,
2011-06-14, 01:43:04,VALID,1000.29,VALID,0,VALID,94.1571,VALID,0,VALID,22.6282,VALID,106,VALID,0.349609,
2011-06-14, 01:44:04,VALID,1000.24,VALID,0,VALID,94.1571,VALID,0,VALID,22.6494,VALID,106,VALID,0.257422,
2011-06-14, 01:45:04,VALID,1000.2,VALID,0,VALID,94.1724,VALID,0,VALID,22.6477,VALID,106,VALID,0.285547,
2011-06-14, 01:46:04,VALID,1000.19,VALID,0,VALID,94.1571,VALID,0,VALID,22.6282,VALID,106,VALID,0.384375,
2011-06-14, 01:47:04,VALID,1000.19,VALID,0,VALID,94.1419,VALID,0,VALID,22.6477,VALID,106,VALID,0.349609,
2011-06-14, 01:48:04,VALID,1000.18,VALID,0,VALID,94.1495,VALID,0,VALID,22.6282,VALID,96,VALID,0.706641,
2011-06-14, 01:49:04,VALID,1000.16,VALID,0,VALID,94.1648,VALID,0,VALID,22.6282,VALID,90,VALID,0.641797,
2011-06-14, 01:50:04,VALID,1000.17,VALID,0,VALID,94.1495,VALID,0,VALID,22.6282,VALID,90,VALID,0.902344,
2011-06-14, 01:51:04,VALID,1000.14,VALID,0,VALID,94.1724,VALID,0,VALID,22.6477,VALID,90,VALID,0.657422,
2011-06-14, 01:52:04,VALID,1000.15,VALID,0,VALID,94.1648,VALID,0,VALID,22.6477,VALID,90,VALID,0.529297,
2011-06-14, 01:53:04,VALID,1000.15,VALID,0,VALID,94.1343,VALID,0,VALID,22.6672,VALID,90,VALID,0.276563,
2011-06-14, 01:54:04,VALID,1000.14,VALID,0,VALID,94.1343,VALID,0,VALID,22.6884,VALID,90,VALID,0.435156,
2011-06-14, 01:55:04,VALID,1000.12,VALID,0,VALID,94.1495,VALID,0,VALID,22.6672,VALID,90,VALID,0.385156,
2011-06-14, 01:56:04,VALID,1000.14,VALID,0,VALID,94.1419,VALID,0,VALID,22.6884,VALID,61,VALID,0.802734,
2011-06-14, 01:57:04,VALID,1000.15,VALID,0,VALID,94.1343,VALID,0,VALID,22.6477,VALID,60,VALID,0.55,
2011-06-14, 01:58:04,VALID,1000.16,VALID,0,VALID,94.1495,VALID,0,VALID,22.6282,VALID,34,VALID,0.621484,
2011-06-14, 01:59:04,VALID,1000.19,VALID,0,VALID,94.1571,VALID,0,VALID,22.6087,VALID,34,VALID,0.652344,
2011-06-14, 02:00:04,VALID,1000.16,VALID,0,VALID,94.1266,VALID,0,VALID,22.6282,VALID,29,VALID,0.610156,
2011-06-14, 02:01:04,VALID,1000.19,VALID,0,VALID,94.1571,VALID,0,VALID,22.6282,VALID,30,VALID,0.561328,
2011-06-14, 02:02:04,VALID,1000.15,VALID,0,VALID,94.1419,VALID,0,VALID,22.6087,VALID,49,VALID,0.885547,
2011-06-14, 02:03:04,VALID,1000.18,VALID,0,VALID,94.1495,VALID,0,VALID,22.6282,VALID,51,VALID,1.03828,
2011-06-14, 02:04:04,VALID,1000.22,VALID,0,VALID,94.1343,VALID,0,VALID,22.6069,VALID,48,VALID,0.992188,
2011-06-14, 02:05:04,VALID,1000.22,VALID,0,VALID,94.1266,VALID,0,VALID,22.6264,VALID,40,VALID,0.787109,
2011-06-14, 02:06:04,VALID,1000.26,VALID,0,VALID,94.1266,VALID,0,VALID,22.6282,VALID,28,VALID,0.903516,
2011-06-14, 02:07:04,VALID,1000.26,VALID,0,VALID,94.1419,VALID,0,VALID,22.6282,VALID,28,VALID,1.03047,
2011-06-14, 02:08:04,VALID,1000.26,VALID,0,VALID,94.1114,VALID,0,VALID,22.6282,VALID,28,VALID,0.861719,
2011-06-14, 02:09:04,VALID,1000.26,VALID,0,VALID,94.119,VALID,0,VALID,22.6282,VALID,29,VALID,0.786719,
2011-06-14, 02:10:04,VALID,1000.26,VALID,0,VALID,94.1266,VALID,0,VALID,22.6282,VALID,31,VALID,0.936719,
2011-06-14, 02:11:04,VALID,1000.28,VALID,0,VALID,94.119,VALID,0,VALID,22.6282,VALID,31,VALID,0.760547,
2011-06-14, 02:12:04,VALID,1000.28,VALID,0,VALID,94.119,VALID,0,VALID,22.6282,VALID,45,VALID,0.8125,
2011-06-14, 02:13:04,VALID,1000.27,VALID,0,VALID,94.119,VALID,0,VALID,22.6282,VALID,47,VALID,0.5875,
2011-06-14, 02:14:04,VALID,1000.29,VALID,0,VALID,94.0961,VALID,0,VALID,22.6282,VALID,47,VALID,0.529297,
2011-06-14, 02:15:04,VALID,1000.31,VALID,0,VALID,94.119,VALID,0,VALID,22.6477,VALID,47,VALID,0.626172,
2011-06-14, 02:16:04,VALID,1000.3,VALID,0,VALID,94.1114,VALID,0,VALID,22.6689,VALID,47,VALID,0.279687,
2011-06-14, 02:17:04,VALID,1000.29,VALID,0,VALID,94.0885,VALID,0,VALID,22.6672,VALID,47,VALID,0.149219,
2011-06-14, 02:18:04,VALID,1000.26,VALID,0,VALID,94.1114,VALID,0,VALID,22.6672,VALID,47,VALID,0.170312,
2011-06-14, 02:19:04,VALID,1000.24,VALID,0,VALID,94.0961,VALID,0,VALID,22.6672,VALID,47,VALID,0.212891,
2011-06-14, 02:20:04,VALID,1000.23,VALID,0,VALID,94.1114,VALID,0,VALID,22.6867,VALID,47,VALID,0.155469,
2011-06-14, 02:21:04,VALID,1000.24,VALID,0,VALID,94.0961,VALID,0,VALID,22.6672,VALID,47,VALID,0,
2011-06-14, 02:22:04,VALID,1000.24,VALID,0,VALID,94.0961,VALID,0,VALID,22.6477,VALID,47,VALID,0,
2011-06-14, 02:23:04,VALID,1000.22,VALID,0,VALID,94.0885,VALID,0,VALID,22.6672,VALID,47,VALID,0,
2011-06-14, 02:24:04,VALID,1000.21,VALID,0,VALID,94.1114,VALID,0,VALID,22.6477,VALID,47,VALID,0,
2011-06-14, 02:25:04,VALID,1000.18,VALID,0,VALID,94.0885,VALID,0,VALID,22.6264,VALID,47,VALID,0,
2011-06-14, 02:26:04,VALID,1000.22,VALID,0,VALID,94.0808,VALID,0,VALID,22.6477,VALID,47,VALID,0,
2011-06-14, 02:27:04,VALID,1000.19,VALID,0,VALID,94.0961,VALID,0,VALID,22.6282,VALID,131,VALID,0.676172,
2011-06-14, 02:28:04,VALID,1000.14,VALID,0,VALID,94.1037,VALID,0,VALID,22.6672,VALID,131,VALID,0.880859,
2011-06-14, 02:29:04,VALID,1000.15,VALID,0,VALID,94.0808,VALID,0,VALID,22.6655,VALID,154,VALID,0.948438,
2011-06-14, 02:30:04,VALID,1000.14,VALID,0,VALID,94.0885,VALID,0,VALID,22.6655,VALID,154,VALID,1.01367,
2011-06-14, 02:31:04,VALID,1000.13,VALID,0,VALID,94.0732,VALID,0,VALID,22.7257,VALID,144,VALID,0.679297,
2011-06-14, 02:32:04,VALID,1000.12,VALID,0,VALID,94.0808,VALID,0,VALID,22.7257,VALID,144,VALID,0.338281,
2011-06-14, 02:33:04,VALID,1000.09,VALID,0,VALID,94.0885,VALID,0,VALID,22.724,VALID,144,VALID,0.189453,
2011-06-14, 02:34:04,VALID,1000.07,VALID,0,VALID,94.0808,VALID,0,VALID,22.7257,VALID,144,VALID,0,
2011-06-14, 02:35:04,VALID,1000.04,VALID,0,VALID,94.0656,VALID,0,VALID,22.7257,VALID,144,VALID,0.00117188,
2011-06-14, 02:36:04,VALID,1000.03,VALID,0,VALID,94.0961,VALID,0,VALID,22.7257,VALID,143,VALID,0.247656,
2011-06-14, 02:37:04,VALID,1000.05,VALID,0,VALID,94.058,VALID,0,VALID,22.7257,VALID,98,VALID,0.601563,
2011-06-14, 02:38:04,VALID,1000.03,VALID,0,VALID,94.0427,VALID,0,VALID,22.7257,VALID,98,VALID,0.217187,
2011-06-14, 02:39:04,VALID,1000.03,VALID,0,VALID,94.0885,VALID,0,VALID,22.7257,VALID,98,VALID,0.34375,
2011-06-14, 02:40:04,VALID,1000.01,VALID,0,VALID,94.0656,VALID,0,VALID,22.7257,VALID,98,VALID,0.387109,
2011-06-14, 02:41:04,VALID,1000.03,VALID,0,VALID,94.0656,VALID,0,VALID,22.7257,VALID,98,VALID,0.757813,
2011-06-14, 02:42:04,VALID,1000.04,VALID,0,VALID,94.0427,VALID,0,VALID,22.7257,VALID,99,VALID,0.791797,
2011-06-14, 02:43:04,VALID,1000.02,VALID,0,VALID,94.0656,VALID,0,VALID,22.7452,VALID,99,VALID,0.875,
2011-06-14, 02:44:04,VALID,1000.01,VALID,0,VALID,94.0503,VALID,0,VALID,22.7452,VALID,99,VALID,0.917969,
2011-06-14, 02:45:04,VALID,999.993,VALID,0,VALID,94.0351,VALID,0,VALID,22.7452,VALID,98,VALID,0.880859,
2011-06-14, 02:46:04,VALID,999.969,VALID,0,VALID,94.0427,VALID,0,VALID,22.7452,VALID,95,VALID,0.725781,
2011-06-14, 02:47:04,VALID,999.959,VALID,0,VALID,94.0198,VALID,0,VALID,22.7647,VALID,90,VALID,0.797656,
2011-06-14, 02:48:04,VALID,999.947,VALID,0,VALID,94.0351,VALID,0,VALID,22.7452,VALID,101,VALID,0.778906,
2011-06-14, 02:49:04,VALID,999.978,VALID,0,VALID,94.0503,VALID,0,VALID,22.7452,VALID,101,VALID,0.944531,
2011-06-14, 02:50:04,VALID,999.967,VALID,0,VALID,94.0351,VALID,0,VALID,22.7647,VALID,101,VALID,0.714063,
2011-06-14, 02:51:04,VALID,999.976,VALID,0,VALID,94.0274,VALID,0,VALID,22.7452,VALID,109,VALID,0.476953,
2011-06-14, 02:52:04,VALID,999.973,VALID,0,VALID,94.0274,VALID,0,VALID,22.7435,VALID,115,VALID,0.945703,
2011-06-14, 02:53:04,VALID,1000,VALID,0,VALID,94.0274,VALID,0,VALID,22.7452,VALID,96,VALID,0.676562,
2011-06-14, 02:54:04,VALID,999.97,VALID,0,VALID,94.0351,VALID,0,VALID,22.7452,VALID,107,VALID,0.698828,
2011-06-14, 02:55:04,VALID,999.972,VALID,0,VALID,94.0274,VALID,0,VALID,22.7452,VALID,109,VALID,1.51719,
2011-06-14, 02:56:04,VALID,999.916,VALID,0,VALID,94.0122,VALID,0,VALID,22.7452,VALID,113,VALID,1.37773,
2011-06-14, 02:57:04,VALID,999.907,VALID,0,VALID,94.0122,VALID,0,VALID,22.7647,VALID,118,VALID,1.7457,
2011-06-14, 02:58:04,VALID,999.918,VALID,0,VALID,94.0122,VALID,0,VALID,22.7647,VALID,115,VALID,1.22734,
2011-06-14, 02:59:04,VALID,999.894,VALID,0,VALID,94.0198,VALID,0,VALID,22.7647,VALID,126,VALID,1.67227,
2011-06-14, 03:00:04,VALID,999.912,VALID,0,VALID,93.9893,VALID,0,VALID,22.7647,VALID,123,VALID,1.61484,
2011-06-14, 03:01:04,VALID,999.915,VALID,0,VALID,93.9893,VALID,0,VALID,22.7647,VALID,127,VALID,1.6,
2011-06-14, 03:02:04,VALID,999.907,VALID,0,VALID,93.9969,VALID,0,VALID,22.7842,VALID,127,VALID,1.12461,
2011-06-14, 03:03:04,VALID,999.928,VALID,0,VALID,93.9969,VALID,0,VALID,22.7842,VALID,142,VALID,0.997656,
2011-06-14, 03:04:04,VALID,999.899,VALID,0,VALID,93.9969,VALID,0,VALID,22.7842,VALID,133,VALID,0.965625,
2011-06-14, 03:05:04,VALID,999.908,VALID,0,VALID,93.974,VALID,0,VALID,22.7842,VALID,134,VALID,1.65195,
2011-06-14, 03:06:04,VALID,999.907,VALID,0,VALID,93.9817,VALID,0,VALID,22.8037,VALID,131,VALID,1.21445,
2011-06-14, 03:07:04,VALID,999.895,VALID,0,VALID,93.9588,VALID,0,VALID,22.7825,VALID,134,VALID,1.23086,
2011-06-14, 03:08:04,VALID,999.915,VALID,0,VALID,93.9664,VALID,0,VALID,22.8037,VALID,134,VALID,1.23672,
2011-06-14, 03:09:04,VALID,999.888,VALID,0,VALID,93.9664,VALID,0,VALID,22.8037,VALID,129,VALID,1.49258,
2011-06-14, 03:10:04,VALID,999.91,VALID,0,VALID,93.9206,VALID,0,VALID,22.7842,VALID,136,VALID,1.31484,
2011-06-14, 03:11:04,VALID,999.864,VALID,0,VALID,93.913,VALID,0,VALID,22.7842,VALID,119,VALID,1.32773,
2011-06-14, 03:12:04,VALID,999.882,VALID,0,VALID,93.913,VALID,0,VALID,22.7842,VALID,130,VALID,1.77031,
2011-06-14, 03:13:04,VALID,999.885,VALID,0,VALID,93.8672,VALID,0,VALID,22.8037,VALID,130,VALID,0.977734,
2011-06-14, 03:14:04,VALID,999.858,VALID,0,VALID,93.8367,VALID,0,VALID,22.8037,VALID,108,VALID,1.03164,
2011-06-14, 03:15:04,VALID,999.843,VALID,0,VALID,93.8367,VALID,0,VALID,22.8037,VALID,103,VALID,1.03086,
2011-06-14, 03:16:04,VALID,999.831,VALID,0,VALID,93.8214,VALID,0,VALID,22.8037,VALID,76,VALID,1.23438,
2011-06-14, 03:17:04,VALID,999.841,VALID,0,VALID,93.7909,VALID,0,VALID,22.8037,VALID,82,VALID,0.946484,
2011-06-14, 03:18:04,VALID,999.819,VALID,0,VALID,93.7604,VALID,0,VALID,22.8037,VALID,95,VALID,0.849609,
2011-06-14, 03:19:04,VALID,999.828,VALID,0,VALID,93.7528,VALID,0,VALID,22.8055,VALID,94,VALID,0.823047,
2011-06-14, 03:20:04,VALID,999.788,VALID,0,VALID,93.7146,VALID,0,VALID,22.8037,VALID,86,VALID,0.96875,
2011-06-14, 03:21:04,VALID,999.786,VALID,0,VALID,93.6841,VALID,0,VALID,22.7842,VALID,86,VALID,1.03945,
2011-06-14, 03:22:04,VALID,999.782,VALID,0,VALID,93.6917,VALID,0,VALID,22.7842,VALID,79,VALID,0.703125,
2011-06-14, 03:23:04,VALID,999.757,VALID,0,VALID,93.6688,VALID,0,VALID,22.7647,VALID,80,VALID,0.897656,
2011-06-14, 03:24:04,VALID,999.771,VALID,0,VALID,93.6307,VALID,0,VALID,22.7647,VALID,82,VALID,0.364844,
2011-06-14, 03:25:04,VALID,999.787,VALID,0,VALID,93.6231,VALID,0,VALID,22.786,VALID,82,VALID,0.204688,
2011-06-14, 03:26:04,VALID,999.772,VALID,0,VALID,93.6154,VALID,0,VALID,22.7452,VALID,82,VALID,0,
2011-06-14, 03:27:04,VALID,999.748,VALID,0,VALID,93.6078,VALID,0,VALID,22.7647,VALID,82,VALID,0,
2011-06-14, 03:28:04,VALID,999.745,VALID,0,VALID,93.5849,VALID,0,VALID,22.7257,VALID,82,VALID,0,
2011-06-14, 03:29:04,VALID,999.758,VALID,0,VALID,93.5697,VALID,0,VALID,22.7452,VALID,82,VALID,0,
2011-06-14, 03:30:04,VALID,999.758,VALID,0,VALID,93.562,VALID,0,VALID,22.7257,VALID,82,VALID,0,
2011-06-14, 03:31:04,VALID,999.746,VALID,0,VALID,93.5697,VALID,0,VALID,22.7257,VALID,82,VALID,0,
2011-06-14, 03:32:04,VALID,999.75,VALID,0,VALID,93.562,VALID,0,VALID,22.7257,VALID,82,VALID,0,
2011-06-14, 03:33:04,VALID,999.784,VALID,0,VALID,93.5697,VALID,0,VALID,22.7257,VALID,82,VALID,0,
2011-06-14, 03:34:04,VALID,999.788,VALID,0,VALID,93.5391,VALID,0,VALID,22.7062,VALID,82,VALID,0,
2011-06-14, 03:35:04,VALID,999.785,VALID,0,VALID,93.5315,VALID,0,VALID,22.7257,VALID,82,VALID,0,
2011-06-14, 03:36:04,VALID,999.748,VALID,0,VALID,93.5468,VALID,0,VALID,22.7257,VALID,82,VALID,0,
2011-06-14, 03:37:04,VALID,999.746,VALID,0,VALID,93.5315,VALID,0,VALID,22.7062,VALID,82,VALID,0,
2011-06-14, 03:38:04,VALID,999.746,VALID,0,VALID,93.5315,VALID,0,VALID,22.7062,VALID,82,VALID,0,
2011-06-14, 03:39:04,VALID,999.732,VALID,0,VALID,93.5391,VALID,0,VALID,22.7274,VALID,82,VALID,0,
2011-06-14, 03:40:04,VALID,999.727,VALID,0,VALID,93.5163,VALID,0,VALID,22.7062,VALID,82,VALID,0,
2011-06-14, 03:41:04,VALID,999.744,VALID,0,VALID,93.5163,VALID,0,VALID,22.6867,VALID,82,VALID,0,
2011-06-14, 03:42:04,VALID,999.775,VALID,0,VALID,93.5086,VALID,0,VALID,22.7062,VALID,82,VALID,0,
2011-06-14, 03:43:04,VALID,999.779,VALID,0,VALID,93.5163,VALID,0,VALID,22.7062,VALID,82,VALID,0,
2011-06-14, 03:44:04,VALID,999.753,VALID,0,VALID,93.5086,VALID,0,VALID,22.6867,VALID,82,VALID,0,
2011-06-14, 03:45:04,VALID,999.749,VALID,0,VALID,93.501,VALID,0,VALID,22.6867,VALID,82,VALID,0,
2011-06-14, 03:46:04,VALID,999.77,VALID,0,VALID,93.501,VALID,0,VALID,22.6672,VALID,82,VALID,0,
2011-06-14, 03:47:04,VALID,999.774,VALID,0,VALID,93.501,VALID,0,VALID,22.6477,VALID,88,VALID,0,
2011-06-14, 03:48:04,VALID,999.823,VALID,0,VALID,93.4705,VALID,0,VALID,22.6672,VALID,88,VALID,0,
2011-06-14, 03:49:04,VALID,999.828,VALID,0,VALID,93.4857,VALID,0,VALID,22.6477,VALID,88,VALID,0,